User: anonymous   Login
Location: Unspecified
(0.0000°N, 0.0000°E)
Time: 01:57:31
(UTC+00:00)
Language:

STARLINK-34497 - Orbit

View from above orbital plane
View from above orbital plane
View from above satellite
View from above satellite

Ground track
Ground track

The orbit is defined by the following mean orbital elements,

1 64696U          26145.34228142 +.00000000 +00000-0 +20604-3 0 00003
2 64696  70.0000 121.1504 0003257 267.5727  92.5059 14.98336750    03
Epoch (UTC): 25 May 2026 08:12:53
Eccentricity: 0.0003257
inclination: 70.0000°
perigee height: 570 km
apogee height: 574 km
right ascension of ascending node: 121.1504°
argument of perigee: 267.5727°
revolutions per day: 14.98336750
mean anomaly at epoch: 92.5059°

The dashed part of the orbit path shows where the satellite is in the earth's shadow,  

DLR